When you browse on this site, cookies collect data to enhance your experience and personalize the content and advertising you see.
Visit our Privacy Policy to learn more. By continuing to use the site, you agree to this use of cookies and data.
  • In France
  • List of Countries
  • For 7 days
  • Water Temperature
  • Satellite Maps
  • Weather Map
  • Weather Widgets
  • user-avatar
    Login

    Hourly Weather Mikulice

    Today, 17 December, Monday

    Time Temperature Precipitation Wind Pressure Humidity
    00:00 -5°C° 0 mm 3 mps 753 mmHg 84%
    01:00 -5°C° 0 mm 3 mps 753 mmHg 84%
    02:00 -5°C° 0 mm 3 mps 753 mmHg 83%
    03:00 -4°C° 0 mm 3 mps 753 mmHg 83%
    04:00 -4°C° 0 mm 3 mps 753 mmHg 82%
    05:00 -3°C° 0 mm 2 mps 753 mmHg 82%
    06:00 -3°C° 0 mm 2 mps 754 mmHg 83%
    07:00 -3°C° 0 mm 2 mps 754 mmHg 85%
    08:00 -3°C° 0 mm 2 mps 754 mmHg 84%
    09:00 -3°C° 0 mm 2 mps 754 mmHg 82%
    10:00 -3°C° 0 mm 2 mps 755 mmHg 81%
    11:00 0°C° 0 mm 1 mps 755 mmHg 80%
    12:00 0°C° 0 mm 1 mps 755 mmHg 78%
    13:00 -2°C° 0 mm 2 mps 755 mmHg 77%
    14:00 0°C° 0 mm 1 mps 755 mmHg 80%
    15:00 -1°C° 0 mm 1 mps 756 mmHg 83%
    16:00 -2°C° 0 mm 1 mps 756 mmHg 85%
    17:00 -2°C° 0 mm 1 mps 756 mmHg 86%
    18:00 -2°C° 0 mm 1 mps 757 mmHg 86%
    19:00 -2°C° 0 mm 1 mps 757 mmHg 87%
    20:00 -2°C° 0 mm 1 mps 758 mmHg 87%
    21:00 -2°C° 0 mm 1 mps 758 mmHg 88%
    22:00 -2°C° 0 mm 1 mps 758 mmHg 88%
    23:00 -2°C° 0 mm 1 mps 758 mmHg 89%

    Tomorrow, 18 December, Tuesday

    Time Temperature Precipitation Wind Pressure Humidity
    00:00 -2°C° 0 mm 1 mps 759 mmHg 90%
    01:00 -2°C° 0 mm 1 mps 759 mmHg 90%
    02:00 -1°C° 0 mm 1 mps 759 mmHg 91%
    03:00 -1°C° 0 mm 1 mps 759 mmHg 91%
    04:00 -1°C° 0 mm 1 mps 759 mmHg 91%
    05:00 -1°C° 0 mm 1 mps 759 mmHg 92%
    06:00 -1°C° 0 mm 1 mps 759 mmHg 92%
    07:00 0°C° 0 mm 1 mps 759 mmHg 93%
    08:00 0°C° 0 mm 1 mps 760 mmHg 92%
    09:00 0°C° 0 mm 1 mps 760 mmHg 92%
    10:00 +1°C° 0 mm 1 mps 760 mmHg 92%
    11:00 +1°C° 0 mm 1 mps 760 mmHg 92%
    12:00 +2°C° 0 mm 1 mps 760 mmHg 92%
    13:00 +2°C° 0 mm 1 mps 760 mmHg 93%
    14:00 +2°C° 0 mm 1 mps 760 mmHg 93%
    15:00 +2°C° 0 mm 1 mps 760 mmHg 94%
    16:00 +1°C° 0 mm 1 mps 760 mmHg 95%
    17:00 +1°C° 0 mm 1 mps 760 mmHg 95%
    18:00 +1°C° 0 mm 1 mps 760 mmHg 95%
    19:00 +1°C° 0 mm 1 mps 760 mmHg 94%
    20:00 +1°C° 0 mm 1 mps 760 mmHg 94%
    21:00 -1°C° 0 mm 2 mps 760 mmHg 94%
    22:00 -1°C° 0 mm 2 mps 760 mmHg 94%
    23:00 -1°C° 0 mm 2 mps 760 mmHg 94%

    Day after tomorrow, 19 December, Wednesday

    Time Temperature Precipitation Wind Pressure Humidity
    00:00 -1°C° 0 mm 2 mps 760 mmHg 93%
    01:00 -1°C° 0 mm 2 mps 760 mmHg 93%
    02:00 -1°C° 0 mm 2 mps 760 mmHg 92%
    03:00 -1°C° 0 mm 3 mps 759 mmHg 92%
    04:00 -2°C° 0 mm 3 mps 759 mmHg 92%
    05:00 -2°C° 0 mm 3 mps 759 mmHg 91%
    06:00 -3°C° 0 mm 4 mps 759 mmHg 91%
    07:00 -3°C° 0 mm 4 mps 759 mmHg 91%
    08:00 -3°C° 0 mm 4 mps 758 mmHg 89%
    09:00 -3°C° 0 mm 4 mps 758 mmHg 87%
    10:00 -4°C° 0 mm 5 mps 758 mmHg 85%
    11:00 -2°C° 0 mm 5 mps 758 mmHg 83%
    12:00 -2°C° 0 mm 5 mps 757 mmHg 80%
    13:00 -1°C° 0 mm 5 mps 757 mmHg 78%
    14:00 -2°C° 0 mm 5 mps 757 mmHg 79%
    15:00 -2°C° 0 mm 4 mps 756 mmHg 79%
    16:00 -3°C° 0 mm 4 mps 756 mmHg 80%
    17:00 -3°C° 0 mm 4 mps 756 mmHg 80%
    18:00 -3°C° 0 mm 4 mps 756 mmHg 79%
    19:00 -3°C° 0 mm 4 mps 756 mmHg 79%
    20:00 -3°C° 0 mm 4 mps 755 mmHg 79%
    21:00 -3°C° 0 mm 4 mps 755 mmHg 79%
    22:00 -3°C° 0 mm 4 mps 755 mmHg 78%
    23:00 -3°C° 0 mm 4 mps 755 mmHg 78%

    20 December, Thursday

    Time Temperature Precipitation Wind Pressure Humidity
    00:00 -3°C° 0 mm 4 mps 755 mmHg 78%
    01:00 -3°C° 0 mm 4 mps 755 mmHg 78%
    02:00 -3°C° 0 mm 4 mps 754 mmHg 78%
    03:00 -3°C° 0 mm 4 mps 754 mmHg 79%
    04:00 -3°C° 0 mm 4 mps 754 mmHg 79%
    05:00 -2°C° 0 mm 3 mps 754 mmHg 78%
    06:00 -2°C° 0 mm 3 mps 754 mmHg 78%
    07:00 -2°C° 0 mm 3 mps 754 mmHg 77%
    08:00 -1°C° 0 mm 3 mps 754 mmHg 76%
    09:00 -1°C° 0 mm 3 mps 754 mmHg 75%
    10:00 -2°C° 0 mm 4 mps 754 mmHg 75%
    11:00 -1°C° 0 mm 3 mps 754 mmHg 75%
    12:00 -1°C° 0 mm 3 mps 754 mmHg 75%
    13:00 0°C° 0 mm 3 mps 753 mmHg 75%
    14:00 -1°C° 0 mm 3 mps 753 mmHg 77%
    15:00 -1°C° 0 mm 3 mps 753 mmHg 79%
    16:00 -1°C° 0 mm 3 mps 753 mmHg 82%
    17:00 -1°C° 0.1 mm 3 mps 753 mmHg 83%
    18:00 -1°C° 0.1 mm 3 mps 753 mmHg 84%
    19:00 -1°C° 0.1 mm 3 mps 753 mmHg 86%
    20:00 -1°C° 0.2 mm 3 mps 753 mmHg 88%
    21:00 -1°C° 0.2 mm 3 mps 753 mmHg 90%
    22:00 -1°C° 0.2 mm 3 mps 753 mmHg 92%
    23:00 -1°C° 0.1 mm 3 mps 753 mmHg 92%

    21 December, Friday

    Time Temperature Precipitation Wind Pressure Humidity
    00:00 -1°C° 0.1 mm 3 mps 753 mmHg 93%
    01:00 0°C° 0.1 mm 3 mps 753 mmHg 93%
    02:00 -1°C° 0 mm 3 mps 753 mmHg 93%
    03:00 -1°C° 0 mm 3 mps 752 mmHg 93%
    04:00 -1°C° 0 mm 3 mps 752 mmHg 93%
    05:00 -1°C° 0 mm 3 mps 752 mmHg 93%
    06:00 -1°C° 0 mm 3 mps 752 mmHg 92%
    07:00 -1°C° 0 mm 3 mps 751 mmHg 92%
    08:00 -1°C° 0 mm 3 mps 751 mmHg 92%
    09:00 -1°C° 0 mm 4 mps 751 mmHg 91%
    10:00 -1°C° 0 mm 4 mps 751 mmHg 90%
    11:00 -1°C° 0 mm 4 mps 750 mmHg 90%
    12:00 0°C° 0 mm 4 mps 750 mmHg 90%
    13:00 0°C° 0 mm 4 mps 749 mmHg 90%
    14:00 0°C° 0 mm 4 mps 749 mmHg 90%
    15:00 -1°C° 0 mm 4 mps 748 mmHg 90%
    16:00 -1°C° 0 mm 4 mps 747 mmHg 91%
    17:00 -1°C° 0.1 mm 4 mps 747 mmHg 90%
    18:00 -1°C° 0.1 mm 4 mps 746 mmHg 90%
    19:00 0°C° 0.1 mm 5 mps 746 mmHg 90%
    20:00 0°C° 0.6 mm 5 mps 745 mmHg 90%
    21:00 0°C° 0.6 mm 5 mps 744 mmHg 91%
    22:00 0°C° 0.6 mm 5 mps 743 mmHg 91%
    23:00 0°C° 1.2 mm 5 mps 743 mmHg 92%

    22 December, Saturday

    Time Temperature Precipitation Wind Pressure Humidity
    00:00 +1°C° 1.2 mm 5 mps 742 mmHg 92%
    01:00 +1°C° 1.2 mm 6 mps 742 mmHg 93%
    02:00 +2°C° 0.4 mm 6 mps 742 mmHg 92%
    03:00 +2°C° 0.4 mm 7 mps 742 mmHg 91%
    04:00 +2°C° 0.4 mm 7 mps 742 mmHg 90%
    05:00 +2°C° 0.2 mm 7 mps 742 mmHg 90%
    06:00 +2°C° 0.2 mm 7 mps 742 mmHg 90%
    07:00 +2°C° 0.2 mm 7 mps 742 mmHg 90%
    08:00 +3°C° 0.2 mm 7 mps 742 mmHg 91%
    09:00 +3°C° 0.2 mm 7 mps 743 mmHg 91%
    10:00 +3°C° 0.2 mm 7 mps 743 mmHg 92%
    11:00 +3°C° 0.5 mm 6 mps 742 mmHg 92%
    12:00 +3°C° 0.5 mm 6 mps 742 mmHg 93%
    13:00 +3°C° 0.5 mm 6 mps 742 mmHg 94%
    14:00 +3°C° 0.8 mm 6 mps 742 mmHg 93%
    15:00 +3°C° 0.8 mm 6 mps 743 mmHg 92%
    16:00 +3°C° 0.8 mm 6 mps 743 mmHg 91%
    17:00 +3°C° 0.3 mm 6 mps 743 mmHg 90%
    18:00 +3°C° 0.3 mm 6 mps 744 mmHg 90%
    19:00 +3°C° 0.3 mm 6 mps 744 mmHg 90%
    20:00 +3°C° 0.2 mm 6 mps 745 mmHg 90%
    21:00 +3°C° 0.2 mm 6 mps 745 mmHg 90%
    22:00 +3°C° 0.2 mm 6 mps 746 mmHg 90%
    23:00 +2°C° 0.2 mm 5 mps 746 mmHg 90%
    Show more